• In Netherlands
  • List of Countries
  • For 7 days
  • Water Temperature
  • Satellite Maps
  • Weather Map
  • Weather Widgets
  • user-avatar
    Login

    Hourly Weather Al-Budajji

    Today, 26 July, Wednesday

    Time Temperature Precipitation Wind Pressure Humidity
    00:00 +39°C° 0 mm 2 mps 749 mmHg 60%
    01:00 +39°C° 0 mm 2 mps 749 mmHg 59%
    02:00 +39°C° 0 mm 3 mps 749 mmHg 61%
    03:00 +38°C° 0 mm 3 mps 749 mmHg 63%
    04:00 +38°C° 0 mm 3 mps 749 mmHg 64%
    05:00 +38°C° 0 mm 2 mps 749 mmHg 66%
    06:00 +38°C° 0 mm 2 mps 749 mmHg 68%
    07:00 +37°C° 0 mm 1 mps 749 mmHg 70%
    08:00 +37°C° 0 mm 1 mps 749 mmHg 68%
    09:00 +38°C° 0 mm 2 mps 750 mmHg 67%
    10:00 +38°C° 0 mm 2 mps 750 mmHg 65%
    11:00 +38°C° 0 mm 2 mps 750 mmHg 63%
    12:00 +39°C° 0 mm 2 mps 750 mmHg 62%
    13:00 +39°C° 0 mm 2 mps 749 mmHg 61%
    14:00 +39°C° 0 mm 1 mps 749 mmHg 63%
    15:00 +39°C° 0 mm 1 mps 749 mmHg 66%
    16:00 +36°C° 0 mm 0 mps 749 mmHg 69%
    17:00 +36°C° 0 mm 0 mps 749 mmHg 66%
    18:00 +39°C° 0 mm 1 mps 748 mmHg 64%
    19:00 +39°C° 0 mm 1 mps 748 mmHg 62%
    20:00 +39°C° 0 mm 1 mps 749 mmHg 62%
    21:00 +38°C° 0 mm 2 mps 749 mmHg 62%
    22:00 +38°C° 0 mm 2 mps 749 mmHg 61%
    23:00 +38°C° 0 mm 2 mps 749 mmHg 63%

    Tomorrow, 27 July, Thursday

    Time Temperature Precipitation Wind Pressure Humidity
    00:00 +37°C° 0 mm 1 mps 749 mmHg 65%
    01:00 +37°C° 0 mm 1 mps 749 mmHg 67%
    02:00 +37°C° 0 mm 1 mps 749 mmHg 67%
    03:00 +37°C° 0 mm 1 mps 749 mmHg 68%
    04:00 +35°C° 0 mm 0 mps 749 mmHg 68%
    05:00 +37°C° 0 mm 1 mps 749 mmHg 67%
    06:00 +37°C° 0 mm 1 mps 750 mmHg 65%
    07:00 +37°C° 0 mm 1 mps 750 mmHg 64%
    08:00 +37°C° 0 mm 1 mps 750 mmHg 63%
    09:00 +37°C° 0 mm 1 mps 751 mmHg 63%
    10:00 +39°C° 0 mm 1 mps 751 mmHg 63%
    11:00 +39°C° 0 mm 1 mps 751 mmHg 64%
    12:00 +39°C° 0 mm 1 mps 751 mmHg 65%
    13:00 +36°C° 0 mm 0 mps 751 mmHg 66%
    14:00 +39°C° 0 mm 1 mps 750 mmHg 63%
    15:00 +39°C° 0 mm 1 mps 750 mmHg 60%
    16:00 +39°C° 0 mm 2 mps 750 mmHg 57%
    17:00 +39°C° 0 mm 2 mps 750 mmHg 58%
    18:00 +39°C° 0 mm 3 mps 750 mmHg 58%
    19:00 +40°C° 0 mm 4 mps 749 mmHg 58%
    20:00 +40°C° 0 mm 4 mps 750 mmHg 59%
    21:00 +38°C° 0 mm 3 mps 750 mmHg 60%
    22:00 +38°C° 0 mm 3 mps 751 mmHg 61%
    23:00 +38°C° 0 mm 3 mps 751 mmHg 62%

    Day after tomorrow, 28 July, Friday

    Time Temperature Precipitation Wind Pressure Humidity
    00:00 +38°C° 0 mm 2 mps 751 mmHg 63%
    01:00 +38°C° 0 mm 2 mps 751 mmHg 64%
    02:00 +38°C° 0 mm 2 mps 751 mmHg 64%
    03:00 +37°C° 0 mm 1 mps 750 mmHg 64%
    04:00 +37°C° 0 mm 1 mps 750 mmHg 65%
    05:00 +37°C° 0 mm 1 mps 751 mmHg 64%
    06:00 +37°C° 0 mm 1 mps 751 mmHg 64%
    07:00 +38°C° 0 mm 2 mps 751 mmHg 63%
    08:00 +37°C° 0 mm 1 mps 752 mmHg 65%
    09:00 +37°C° 0 mm 1 mps 752 mmHg 68%
    10:00 +36°C° 0 mm 0 mps 752 mmHg 70%
    11:00 +36°C° 0 mm 0 mps 752 mmHg 67%
    12:00 +39°C° 0 mm 1 mps 752 mmHg 64%
    13:00 +39°C° 0 mm 1 mps 752 mmHg 61%
    14:00 +39°C° 0 mm 1 mps 752 mmHg 60%
    15:00 +39°C° 0 mm 2 mps 751 mmHg 60%
    16:00 +39°C° 0 mm 2 mps 751 mmHg 60%
    17:00 +39°C° 0 mm 2 mps 751 mmHg 61%
    18:00 +39°C° 0 mm 2 mps 751 mmHg 61%
    19:00 +39°C° 0 mm 2 mps 751 mmHg 62%
    20:00 +39°C° 0 mm 2 mps 751 mmHg 61%
    21:00 +39°C° 0 mm 1 mps 751 mmHg 60%
    22:00 +39°C° 0 mm 1 mps 751 mmHg 60%
    23:00 +39°C° 0 mm 2 mps 751 mmHg 58%

    29 July, Saturday

    Time Temperature Precipitation Wind Pressure Humidity
    00:00 +39°C° 0 mm 2 mps 751 mmHg 57%
    01:00 +39°C° 0 mm 3 mps 751 mmHg 56%
    02:00 +39°C° 0 mm 3 mps 751 mmHg 58%
    03:00 +39°C° 0 mm 2 mps 751 mmHg 60%
    04:00 +39°C° 0 mm 2 mps 750 mmHg 62%
    05:00 +39°C° 0 mm 2 mps 751 mmHg 60%
    06:00 +39°C° 0 mm 2 mps 751 mmHg 57%
    07:00 +39°C° 0 mm 2 mps 751 mmHg 55%
    08:00 +39°C° 0 mm 3 mps 752 mmHg 54%
    09:00 +39°C° 0 mm 3 mps 752 mmHg 54%
    10:00 +41°C° 0 mm 4 mps 752 mmHg 53%
    11:00 +40°C° 0 mm 4 mps 752 mmHg 54%
    12:00 +40°C° 0 mm 4 mps 752 mmHg 56%
    13:00 +40°C° 0 mm 4 mps 752 mmHg 57%
    14:00 +40°C° 0 mm 4 mps 751 mmHg 58%
    15:00 +40°C° 0 mm 4 mps 751 mmHg 58%
    16:00 +40°C° 0 mm 4 mps 750 mmHg 59%
    17:00 +40°C° 0 mm 4 mps 750 mmHg 60%
    18:00 +39°C° 0 mm 3 mps 750 mmHg 61%
    19:00 +39°C° 0 mm 3 mps 750 mmHg 61%
    20:00 +39°C° 0 mm 2 mps 751 mmHg 63%
    21:00 +39°C° 0 mm 2 mps 751 mmHg 65%
    22:00 +39°C° 0 mm 1 mps 751 mmHg 67%
    23:00 +39°C° 0 mm 2 mps 751 mmHg 65%

    30 July, Sunday

    Time Temperature Precipitation Wind Pressure Humidity
    00:00 +39°C° 0 mm 2 mps 750 mmHg 64%
    01:00 +39°C° 0 mm 2 mps 750 mmHg 63%
    02:00 +39°C° 0 mm 2 mps 750 mmHg 61%
    03:00 +39°C° 0 mm 2 mps 750 mmHg 60%
    04:00 +39°C° 0 mm 3 mps 749 mmHg 59%
    05:00 +39°C° 0 mm 3 mps 750 mmHg 60%
    06:00 +40°C° 0 mm 4 mps 750 mmHg 60%
    07:00 +40°C° 0 mm 4 mps 750 mmHg 61%
    08:00 +40°C° 0 mm 4 mps 751 mmHg 62%
    09:00 +40°C° 0 mm 4 mps 751 mmHg 63%
    10:00 +40°C° 0 mm 5 mps 751 mmHg 64%
    11:00 +40°C° 0 mm 4 mps 751 mmHg 63%
    12:00 +40°C° 0 mm 4 mps 751 mmHg 63%
    13:00 +40°C° 0 mm 4 mps 750 mmHg 62%
    14:00 +39°C° 0 mm 3 mps 750 mmHg 63%
    15:00 +39°C° 0 mm 3 mps 750 mmHg 63%
    16:00 +39°C° 0 mm 2 mps 749 mmHg 63%
    17:00 +39°C° 0 mm 2 mps 749 mmHg 63%
    18:00 +39°C° 0 mm 2 mps 750 mmHg 63%
    19:00 +39°C° 0 mm 2 mps 750 mmHg 64%
    20:00 +39°C° 0 mm 2 mps 750 mmHg 64%
    21:00 +39°C° 0 mm 2 mps 750 mmHg 64%
    22:00 +38°C° 0 mm 2 mps 750 mmHg 65%
    23:00 +38°C° 0 mm 2 mps 750 mmHg 66%

    31 July, Monday

    Time Temperature Precipitation Wind Pressure Humidity
    00:00 +38°C° 0 mm 2 mps 750 mmHg 67%
    01:00 +38°C° 0 mm 2 mps 749 mmHg 68%
    02:00 +38°C° 0 mm 3 mps 749 mmHg 68%
    03:00 +38°C° 0 mm 3 mps 749 mmHg 67%
    04:00 +38°C° 0 mm 3 mps 749 mmHg 66%
    05:00 +38°C° 0 mm 3 mps 750 mmHg 67%
    06:00 +38°C° 0 mm 3 mps 750 mmHg 67%
    07:00 +38°C° 0 mm 3 mps 750 mmHg 68%
    08:00 +38°C° 0 mm 3 mps 751 mmHg 68%
    09:00 +38°C° 0 mm 2 mps 751 mmHg 69%
    10:00 +38°C° 0 mm 2 mps 751 mmHg 69%
    11:00 +37°C° 0 mm 1 mps 751 mmHg 66%
    12:00 +37°C° 0 mm 1 mps 751 mmHg 64%
    13:00 +37°C° 0 mm 1 mps 751 mmHg 61%
    14:00 +39°C° 0 mm 1 mps 750 mmHg 62%
    15:00 +39°C° 0 mm 1 mps 750 mmHg 64%
    16:00 +39°C° 0 mm 2 mps 750 mmHg 65%
    17:00 +39°C° 0 mm 2 mps 750 mmHg 66%
    18:00 +39°C° 0 mm 2 mps 750 mmHg 66%
    19:00 +39°C° 0 mm 1 mps 750 mmHg 66%
    20:00 +39°C° 0 mm 2 mps 750 mmHg 63%
    21:00 +39°C° 0 mm 3 mps 750 mmHg 61%
    22:00 +39°C° 0 mm 3 mps 751 mmHg 59%
    23:00 +40°C° 0 mm 4 mps 750 mmHg 59%
    Show more